User: anonymous   Login
Location: Unspecified
(0.0000°N, 0.0000°E)
Time: 11:03:15
(UTC+00:00)
Language:

AIST 1 - Orbit

View from above orbital plane
View from above orbital plane
View from above satellite
View from above satellite

Ground track
Ground track

The orbit data is extracted from the following two-line orbital elements,

1 39492U 13078C   19082.05988455  .00000177  00000-0  16535-4 0  9999
2 39492  82.4169 287.1214 0021569  64.5715 295.7734 14.87798724283956
Epoch (UTC): 23 March 2019 01:26:14
Eccentricity: 0.0021569
inclination: 82.4169°
perigee height: 590 km
apogee height: 620 km
right ascension of ascending node: 287.1214°
argument of perigee: 64.5715°
revolutions per day: 14.87798724
mean anomaly at epoch: 295.7734°
orbit number at epoch: 28395

The dashed part of the orbit path shows where the satellite is in the earth's shadow,  

DLR